Probability
0 0 0 0 0 0 0 0 0 0 0 0 0 0 0 0 0 0 0 0 1 2 3 3 3 3 3 3 2 2 1 0 0 0 1 2 2 1 0 0 0 0 0 0 0 0 0 0 0
0 0 0 0 0 0 0 0 0 0 0 0 0 0 0 0 0 0 0 0 1 2 3 3 3 3 3 3 1 1 2 1 0 0 1 3 3 1 1 0 0 0 0 0 0 0 0 0 0
0 0 0 0 0 0 0 0 0 0 0 0 0 0 0 0 0 0 0 0 1 2 3 3 3 3 3 2 1 1 2 2 1 0 2 3 3 3 2 1 0 0 0 0 0 0 0 0 0
0 0 0 0 0 0 0 0 0 0 0 0 0 0 0 0 0 0 0 0 1 2 3 3 3 3 3 2 1 0 1 2 1 0 1 2 3 3 3 2 1 0 0 0 1 1 1 0 0
0 0 0 0 0 0 0 0 0 0 0 0 0 0 0 0 0 0 0 0 0 1 3 3 3 3 3 2 1 0 0 1 1 1 0 1 3 3 3 3 1 0 0 0 1 2 1 0 0
0 0 0 0 0 0 0 0 0 0 0 0 0 0 0 0 0 0 0 0 0 1 2 3 3 2 2 2 2 1 0 0 1 1 0 1 2 3 3 2 1 0 0 0 1 2 1 0 0
0 0 0 0 0 0 0 0 0 0 0 0 0 0 0 0 0 0 0 0 0 0 1 1 2 1 0 1 2 1 1 0 0 0 0 0 1 1 2 1 1 0 0 0 0 1 1 0 0
0 0 0 0 0 0 0 0 0 0 0 0 0 0 0 0 0 0 0 0 0 0 0 1 1 1 1 0 1 1 1 1 0 0 0 0 0 1 1 1 0 0 0 0 0 0 0 0 0
0 0 0 0 0 0 0 0 0 0 0 0 0 0 0 0 0 0 0 0 0 0 0 0 1 1 1 0 0 0 0 0 0 0 0 0 0 0 0 0 0 0 0 0 0 0 0 0 0
0 0 0 0 0 0 0 0 0 0 0 0 0 0 0 0 0 0 0 0 0 0 0 0 0 1 1 0 0 0 0 0 0 0 0 0 0 0 0 0 0 0 0 0 0 0 0 0 0
0 0 0 0 0 0 0 0 0 0 0 0 0 0 0 0 0 1 2 1 1 1 0 0 0 0 0 0 0 0 0 0 0 0 0 0 0 0 0 0 0 0 0 0 0 0 0 0 0
0 0 0 0 0 0 0 0 0 0 0 0 0 0 0 0 0 2 3 3 2 2 1 0 0 0 0 0 0 0 1 0 0 0 0 0 0 0 0 0 0 0 0 0 0 0 0 0 0
0 0 0 0 0 0 0 0 0 0 0 0 0 0 0 0 0 1 3 3 3 3 2 1 0 0 0 0 0 0 1 1 0 0 0 0 0 0 0 0 0 0 0 0 0 0 0 0 0
0 0 0 0 0 0 0 0 0 0 0 0 0 0 0 0 0 1 2 3 3 3 2 1 0 0 0 0 0 0 0 1 0 0 0 0 0 0 0 0 0 0 0 0 0 0 0 0 0
0 0 0 0 0 0 0 0 0 0 0 0 0 0 0 0 0 0 1 2 3 3 2 1 0 0 0 0 0 0 0 0 0 0 0 0 0 0 0 0 0 0 0 0 0 0 0 0 0
0 0 0 0 0 0 0 0 0 0 0 0 0 0 0 0 0 0 0 1 3 3 2 1 0 0 0 0 0 0 0 0 0 0 0 0 0 0 0 0 0 0 0 0 0 0 0 0 0
0 0 0 0 0 0 0 0 0 0 0 0 0 0 0 0 0 0 0 1 2 3 2 1 0 0 0 0 0 0 0 0 0 0 0 0 0 0 0 0 0 0 0 0 0 0 0 0 0
0 0 0 0 0 0 0 0 0 0 0 0 0 0 0 0 0 0 0 1 2 2 1 0 0 0 0 0 0 0 0 0 0 0 0 0 0 0 0 0 0 0 0 0 0 0 0 0 0
0 0 0 0 0 0 0 0 0 0 0 0 0 0 0 0 0 0 0 0 1 2 1 0 0 0 0 0 0 0 0 0 0 0 0 0 0 0 0 0 0 0 0 0 0 0 0 0 0
0 0 0 0 0 0 0 0 0 0 0 0 0 0 0 0 0 0 0 1 1 1 0 0 0 0 0 0 0 0 0 0 0 0 0 0 0 0 0 0 0 0 0 0 0 0 0 0 0
0 0 0 0 0 0 0 0 0 0 0 0 0 0 0 0 0 0 0 1 1 0 0 0 0 0 0 0 0 0 0 0 0 0 0 0 0 0 0 0 0 0 0 0 0 0 0 0 0
0 0 0 0 0 0 0 0 0 0 0 0 0 0 0 0 0 0 0 0 0 0 0 0 0 0 0 0 0 0 0 0 0 0 0 0 0 0 0 0 0 0 0 0 0 0 0 0 0
0 0 0 0 0 0 0 0 0 0 0 0 0 0 0 0 0 0 0 0 0 0 0 0 0 0 0 0 0 0 0 0 0 0 0 0 0 0 0 0 0 0 0 0 0 0 0 0 0
0 0 0 0 0 0 0 0 0 0 0 0 0 0 0 0 0 0 0 0 0 0 0 0 0 0 0 0 0 0 0 0 0 0 0 0 0 0 0 0 0 0 0 0 0 0 0 0 0
0 0 0 0 0 0 0 0 0 0 0 0 0 0 0 0 0 0 0 0 0 0 0 0 0 0 0 0 0 0 0 0 0 0 0 0 0 0 0 0 0 0 0 0 0 0 0 0 0
0 0 0 0 0 0 0 0 0 0 0 0 0 0 0 0 0 0 0 0 0 0 0 0 0 0 0 0 0 0 0 0 0 0 0 0 0 0 0 0 0 0 0 0 0 0 0 0 0
0 0 0 0 0 0 0 0 0 0 0 0 0 0 0 0 0 0 0 0 0 0 0 0 0 0 0 0 0 0 0 0 0 0 0 0 0 0 0 0 0 0 0 0 0 0 0 0 0
0 0 0 0 0 0 0 0 0 0 0 0 0 0 0 0 0 0 0 0 0 0 0 0 0 0 0 0 0 0 0 0 0 0 0 0 0 0 0 0 0 0 0 0 0 0 0 0 0
0 0 0 0 0 0 0 0 0 0 0 0 0 0 0 0 0 0 0 0 0 0 0 0 0 0 0 0 0 0 0 0 0 0 0 0 0 0 0 0 0 0 0 0 0 0 0 0 0
0 0 0 0 0 0 0 0 0 0 0 0 0 0 0 0 0 0 0 0 0 0 0 0 0 0 0 0 0 0 0 0 0 0 0 0 0 0 0 0 0 0 0 0 0 0 0 0 0
Wind_Speed
8 4 2 4 5 4 1 2 1 0 0 1 1 3 4 3 3 2 0 1 2 2 2 2 4 6 6 6 6 6 6 7 7 7 7 7 8 8 8 8 8 8 9 9 9 9 10 10 11
3 2 4 5 4 1 3 2 2 1 1 2 3 3 3 1 1 2 1 1 2 3 2 2 4 6 6 6 6 6 6 6 7 7 7 7 8 8 8 8 8 8 8 8 8 9 9 9 10
1 2 4 4 3 4 3 2 2 0 2 2 2 2 1 0 0 1 1 1 2 3 2 2 5 6 6 6 6 6 6 6 7 7 7 7 7 7 7 7 7 7 7 8 8 8 8 8 9
2 5 5 4 2 3 2 2 1 1 2 2 2 1 1 1 0 1 1 3 3 2 2 2 5 5 6 6 6 6 6 6 6 6 6 6 7 7 7 7 6 6 7 7 8 8 8 8 8
4 5 4 1 2 2 1 2 1 1 1 1 2 1 1 1 1 2 3 3 3 2 2 2 4 5 5 5 5 5 5 5 5 5 6 6 6 6 6 6 6 6 6 6 7 7 7 7 7
5 4 3 2 3 2 1 1 1 1 0 1 2 1 1 1 1 1 2 3 3 3 2 2 3 4 4 4 5 4 5 5 5 4 5 5 6 6 6 6 5 5 5 6 6 6 6 6 6
5 4 3 3 2 2 1 0 1 1 1 1 2 2 2 1 1 1 2 3 3 3 2 2 2 2 3 4 4 4 4 4 4 4 4 5 5 5 5 5 5 5 5 5 5 5 5 5 5
4 5 2 2 2 3 1 1 0 1 2 0 2 3 3 2 2 2 3 3 2 2 2 2 2 2 2 2 4 4 4 4 4 5 5 5 5 5 5 5 5 5 5 5 5 5 4 4 5
3 5 2 4 4 3 1 1 1 1 1 1 0 1 1 2 4 3 2 2 1 1 1 1 2 2 2 2 2 3 3 4 4 4 5 5 3 2 3 4 5 5 5 5 5 5 5 5 5
5 3 4 2 2 2 1 1 1 1 1 1 2 1 1 3 4 4 3 3 3 2 1 1 1 2 2 1 2 1 2 2 2 2 3 2 2 2 3 5 5 5 5 5 6 6 6 5 2
3 3 2 1 0 1 1 0 0 2 3 4 4 3 1 2 3 5 5 5 5 4 2 2 2 1 2 1 1 1 1 1 1 2 2 2 2 2 2 2 3 3 4 3 4 4 3 2 2
3 0 0 1 1 0 1 0 1 3 6 3 4 3 3 4 6 7 7 5 4 3 3 3 3 2 1 1 1 1 1 1 1 1 1 2 1 1 1 1 1 1 1 2 2 1 2 2 2
2 0 1 1 2 1 1 1 3 5 6 2 1 2 5 6 6 6 5 5 4 4 4 4 3 3 2 2 1 2 1 1 1 1 1 2 1 1 1 1 1 1 1 1 1 1 2 2 2
1 1 1 1 1 1 1 3 2 7 3 2 2 4 5 6 6 5 5 5 5 5 5 4 4 4 4 3 2 2 2 2 2 1 1 2 2 1 1 0 0 0 0 0 0 1 1 1 1
2 2 3 2 1 1 2 5 5 6 1 3 4 4 4 5 5 6 7 6 6 5 4 5 5 4 4 4 3 3 2 2 2 2 2 2 2 2 1 1 0 1 0 0 0 1 1 1 2
2 3 2 3 1 2 1 7 6 2 1 5 5 5 5 6 6 6 6 6 5 4 5 5 4 4 5 4 4 3 2 2 2 2 2 2 2 2 1 1 1 1 0 0 0 0 1 1 2
3 1 2 4 2 1 1 8 7 2 2 6 6 6 6 6 6 6 5 6 5 5 5 4 4 5 5 4 3 3 2 2 2 2 2 2 2 2 2 1 1 1 0 0 0 0 0 1 2
2 2 2 4 3 2 3 9 11 5 4 7 7 6 6 6 8 6 5 5 4 4 4 4 4 4 4 3 2 2 2 2 2 2 2 3 2 2 2 2 1 1 1 0 0 0 1 1 1
2 2 3 4 2 2 5 10 13 8 5 7 7 6 7 7 6 3 3 3 3 3 4 4 4 4 3 2 2 2 2 2 2 2 2 3 3 3 2 2 2 2 1 1 1 1 0 1 1
2 1 2 3 2 2 5 10 10 6 5 6 6 6 6 6 4 3 2 2 3 4 4 4 5 4 4 3 2 2 2 2 2 2 2 2 3 3 3 3 3 2 2 2 2 1 1 0 0
1 3 3 3 5 2 4 8 5 4 3 3 4 4 4 4 4 3 2 2 2 3 4 4 5 4 4 3 2 1 1 0 1 1 2 2 3 3 3 3 3 2 2 2 3 2 2 2 1
3 2 2 1 2 4 3 6 8 4 6 4 4 4 4 4 3 2 2 2 2 3 3 3 3 3 3 4 3 3 3 3 3 2 2 2 2 2 2 2 3 3 2 2 3 3 2 2 2
2 1 1 0 0 2 1 2 10 4 5 6 5 4 4 4 3 2 2 3 2 2 2 2 2 2 3 3 4 4 3 3 2 1 2 2 2 2 2 2 2 3 2 3 3 2 2 2 2
2 2 3 3 3 3 2 3 9 4 5 5 4 4 4 4 3 2 1 1 1 1 0 0 1 1 1 2 3 4 4 3 3 3 3 2 2 2 2 2 2 2 2 3 3 2 3 2 2
2 4 4 5 4 6 1 3 11 7 5 4 5 5 4 3 2 2 1 1 1 1 1 1 0 1 1 2 3 4 5 5 5 5 4 3 2 2 3 3 3 3 3 3 2 2 2 3 3
2 4 6 4 5 6 2 7 9 5 4 4 4 4 3 2 2 1 1 1 1 1 1 1 1 2 1 2 3 3 3 4 4 4 4 3 3 3 3 3 3 3 3 3 3 2 2 2 3
3 2 2 4 0 3 6 7 10 3 3 2 3 2 2 2 2 1 2 1 1 1 1 1 1 2 2 2 2 2 2 3 3 3 3 3 3 2 3 3 3 3 3 3 3 2 2 2 3
1 4 4 4 2 5 7 6 6 4 4 2 2 2 3 2 2 2 2 2 2 2 2 1 1 2 2 2 1 1 2 2 2 2 2 3 3 2 3 3 3 3 3 3 3 2 2 3 3
3 3 3 3 4 4 5 9 7 7 5 3 4 3 2 2 3 3 3 2 2 2 1 1 1 2 2 2 1 1 1 1 1 2 3 3 2 2 3 3 3 3 3 3 3 3 3 3 3
4 5 6 5 5 4 4 10 3 4 3 3 3 2 2 2 2 2 3 3 3 3 2 2 2 2 2 2 1 1 1 1 1 2 2 2 3 3 3 3 3 3 3 3 3 4 4 4 5
Wind_Direction
336 340 46 53 57 56 209 245 208 233 306 40 68 98 122 131 154 174 26 44 80 110 112 108 107 116 112 107 106 104 110 113 109 104 100 96 91 87 84 82 77 75 75 74 73 72 72 71 68
332 356 54 60 90 121 260 249 212 220 168 98 58 71 85 84 45 78 16 353 92 109 102 96 106 109 108 108 109 108 104 114 112 107 104 99 93 90 86 83 79 76 74 74 73 73 74 71 70
329 47 80 79 117 177 217 241 212 140 69 86 71 48 92 109 99 166 274 146 97 101 96 96 107 110 106 102 105 107 104 108 111 106 103 98 93 92 87 84 81 77 74 73 71 72 73 71 71
72 51 58 80 182 219 232 280 196 105 50 54 101 60 26 18 231 198 136 128 111 102 97 105 107 112 110 106 103 100 97 100 110 107 101 97 92 89 86 85 82 78 75 73 71 73 71 68 67
60 77 73 66 231 234 253 290 162 120 76 40 100 107 299 352 42 106 128 128 124 112 92 108 110 107 110 110 108 104 97 92 96 102 100 96 89 86 85 82 81 80 78 74 72 72 71 67 65
60 71 102 201 240 272 290 281 139 85 22 64 114 146 247 21 81 124 132 131 128 123 92 85 115 111 108 110 105 98 94 86 82 90 99 98 92 85 80 79 79 78 77 74 72 70 68 67 64
104 103 151 184 219 273 276 99 142 161 185 238 168 160 266 285 198 138 123 111 108 113 99 78 82 94 103 102 100 90 83 81 76 78 85 86 82 79 70 69 74 73 70 67 67 67 64 62 58
117 108 127 189 196 247 276 64 66 148 203 312 142 176 239 233 145 111 101 100 101 99 102 93 87 77 76 85 93 89 81 77 72 69 72 75 71 66 60 58 63 65 61 56 55 56 56 53 51
88 85 182 209 196 227 222 100 349 26 97 358 299 224 263 116 119 114 103 92 115 123 104 110 111 103 91 90 81 77 72 71 68 66 68 70 65 61 56 55 55 55 55 50 46 43 43 40 38
78 134 215 220 192 193 169 162 201 60 12 303 304 314 59 116 144 161 174 186 190 196 195 159 143 143 128 111 89 78 67 67 70 76 72 66 66 64 61 57 52 49 48 44 42 37 34 31 20
94 166 202 270 247 173 153 300 264 161 243 227 231 240 198 167 185 197 203 202 204 198 191 179 172 164 141 135 127 103 79 68 71 84 85 80 65 66 61 60 48 45 43 42 36 31 24 21 12
101 351 199 301 355 98 175 234 286 218 234 234 222 203 193 206 210 213 213 213 203 200 202 188 172 174 179 169 163 153 133 123 111 93 93 101 89 67 62 65 48 46 38 38 30 26 13 14 11
107 95 33 36 46 67 71 250 254 258 262 281 259 199 213 222 227 230 224 215 204 207 204 194 179 185 191 178 194 170 173 180 174 143 136 131 130 127 82 59 55 42 48 49 20 12 3 358 353
127 94 350 336 344 5 315 282 255 264 266 280 264 240 232 232 233 237 230 224 211 211 209 193 189 190 192 196 205 192 191 188 179 172 178 161 151 156 150 143 40 9 24 30 28 353 344 335 338
91 59 1 347 350 334 351 308 246 261 297 278 271 261 254 248 240 234 228 222 215 211 205 198 197 195 196 203 213 202 195 187 187 191 181 175 168 170 162 184 234 295 287 47 44 6 2 346 342
54 47 339 321 4 343 75 275 278 294 268 274 274 271 267 262 249 244 237 229 216 207 207 207 202 201 203 204 209 202 190 196 200 197 180 189 185 173 164 186 228 268 295 135 86 14 360 340 331
32 16 278 306 352 11 159 263 286 326 283 277 277 275 273 277 269 251 237 225 213 206 207 205 205 204 207 204 202 195 189 199 206 194 182 198 193 182 173 193 217 191 240 234 182 10 296 302 315
220 224 262 276 314 355 278 271 285 296 271 270 275 278 278 274 267 258 241 227 211 206 204 200 205 208 203 191 189 186 194 206 211 199 198 199 195 190 183 184 196 170 171 232 161 254 308 267 299
163 190 253 272 312 311 271 278 288 296 282 274 276 276 274 271 275 266 242 219 199 197 197 200 204 207 189 180 186 193 208 208 210 206 201 199 193 191 189 187 187 181 195 216 190 184 258 316 348
144 193 271 298 344 309 298 287 283 280 261 255 264 270 269 279 302 295 240 204 196 203 204 206 214 207 198 192 182 190 194 204 203 201 201 197 187 190 196 193 191 187 194 202 188 173 164 259 141
225 202 230 276 325 338 328 304 296 299 299 290 274 273 277 264 276 288 258 227 213 218 218 219 217 208 201 187 151 132 132 145 191 207 212 206 190 189 196 199 191 190 192 204 200 187 185 214 240
243 230 203 263 346 314 20 302 297 305 315 307 294 295 292 287 276 273 259 254 242 246 246 234 221 210 198 178 174 180 197 220 224 211 215 219 194 191 187 195 194 190 195 203 207 197 205 193 214
198 100 114 91 175 316 344 243 285 325 304 299 299 292 294 297 283 273 255 243 250 246 237 222 218 214 200 191 190 196 221 233 231 212 220 227 207 196 195 200 199 194 196 204 204 199 201 203 201
131 74 58 51 60 292 232 196 278 263 251 290 312 317 315 317 319 317 328 358 351 10 358 232 199 229 207 202 203 202 219 229 228 228 222 224 214 205 202 199 198 198 196 203 207 202 201 205 208
90 88 22 355 356 258 233 220 252 256 250 256 285 303 315 312 319 324 344 345 346 3 1 344 275 259 233 214 221 218 218 219 225 227 221 217 219 221 211 201 204 202 202 204 198 199 212 207 208
185 147 158 207 246 282 282 240 255 264 276 268 271 281 304 314 308 306 284 280 293 305 323 325 299 288 279 244 245 240 230 223 229 226 222 219 221 221 205 200 208 207 202 203 194 198 214 210 217
147 189 160 134 56 292 274 280 295 280 286 281 286 302 302 310 305 282 292 290 283 286 270 246 253 278 280 264 266 262 246 236 234 224 220 222 219 211 199 201 210 210 203 201 193 201 214 217 225
147 150 118 134 172 271 288 272 253 262 262 285 293 288 300 319 325 315 296 293 297 295 297 291 245 254 269 264 251 266 259 244 235 215 222 228 222 206 195 202 211 215 208 201 197 210 219 221 233
147 154 151 143 169 183 272 272 225 221 221 233 259 276 295 316 317 314 315 311 321 335 333 321 301 295 299 292 278 266 263 248 232 233 234 231 229 214 206 208 209 216 219 211 209 222 222 231 243
189 186 164 173 224 206 229 268 252 220 229 223 248 279 309 320 320 328 336 343 350 339 332 320 304 295 288 282 261 250 251 230 228 242 246 238 230 223 218 210 212 218 221 220 223 232 232 233 238